User: anonymous   Login
Location: Unspecified
(0.0000°N, 0.0000°E)
Time: 00:50:27
(UTC+00:00)
Language:

STARLINK-30551 - Orbit

View from above orbital plane
View from above orbital plane
View from above satellite
View from above satellite

Ground track
Ground track

The orbit is defined by the following mean orbital elements,

1 58083U          26145.30534657 +.00000000 +00000-0 +10683-4 0 00000
2 58083  43.0018   8.5651 0001734  63.3273 296.7756 15.27576695    01
Epoch (UTC): 25 May 2026 07:19:41
Eccentricity: 0.0001734
inclination: 43.0018°
perigee height: 482 km
apogee height: 484 km
right ascension of ascending node: 8.5651°
argument of perigee: 63.3273°
revolutions per day: 15.27576695
mean anomaly at epoch: 296.7756°

The dashed part of the orbit path shows where the satellite is in the earth's shadow,  

DLR